Regional Weather Roundup
Issued by NWS Grand Forks, ND

Home | Current Version | Previous Version | Text Only | Print | Product List | Glossary Off
Versions: 1 2 3 4 5 6 7 8 9 10 11 12 13 14 15 16 17 18 19 20 21 22 23 24 25 26 27 28 29 30 31 32 33 34 35 36 37 38 39 40 41 42 43 44 45 46 47 48 49 50

000
ASUS43 KFGF 031710
RWRFGF
PRAIRIE TO PINES  WEATHER ROUNDUP
NATIONAL WEATHER SERVICE EASTERN NORTH DAKOTA/GRAND FORKS ND
1100 AM CST TUE MAR 03 2015

 **SATELLITE DATA USED TO AUGMENT SKY COVER AT AUTOMATED STATIONS**
 *****  WEATHER ACROSS EASTERN NORTH DAKOTA  *****

CITY           SKY/WX    TMP DP  RH WIND       PRES   REMARKS
GRAND FORKS    CLOUDY    10   0  63 NW23G33   29.89R WCI -10
GRAND FRKS AFB MOSUNNY   10  -3  56 N23G36    29.89R WCI -11
GRAND FRKS NWS   N/A     10 N/A N/A N5          N/A  WCI   2
DEVILS LAKE    SUNNY      3  -9  55 NW24      29.91R WCI -20
FARGO          FLURRIES  13   2  61 NW26G38   29.89R WCI  -7
WAHPETON ARPT  PTSUNNY   14   5  67 NW30G37   29.87S WCI  -7
$$

 ***** WEATHER ACROSS CENTRAL AND WESTERN NORTH DAKOTA  *****

CITY           SKY/WX    TMP DP  RH WIND       PRES   REMARKS
BISMARCK       PTSUNNY   10  -5  50 NW28G36   30.05R WCI -12
MINOT          LGT SNOW   3  -6  66 W25G37    30.00F WCI -20
JAMESTOWN      CLOUDY     7  -3  64 NW28G38   29.93R WCI -16
MINOT AFB      CLOUDY     1  -4  76 NW26G36   29.99F BLWGSNOWWCI -23
GARRISON         N/A      5  -4  66 NW28G36   30.01S WCI -18
WILLISTON      CLOUDY     5  -6  60 NW22G32   30.10F WCI -16
DICKINSON      MOSUNNY    9  -6  50 NW31G39   29.99R WCI -14
HETTINGER      MOSUNNY   12  -4  48 NW30G38   30.01F WCI -10
$$

 *****  OTHER AIRPORT OBSERVATIONS IN OUR AREA  *****

CITY           SKY/WX    TMP DP  RH WIND       PRES   REMARKS
WALHALLA         N/A      5  -2  72 NW25G33   29.89R WCI -18
GRAFTON AIRPOR NOT AVBL
VALLEY CITY AR FLURRIES   9   0  66 NW29G38   29.91R WCI -14
CANDO          PTSUNNY    3  -6  66 NW25G31   29.92S WCI -20
CAVALIER APRT  CLOUDY     7   0  72 NW20G30   29.88S HAZE    WCI -13
GWINNER        PTSUNNY   14   3  62 NW31      29.92R WCI  -7
SHEYENNE NWR     N/A     12   1  62 NW18      29.95S WCI  -6
ROLLA          FAIR       0  -9  65 NW23G29   29.88S WCI -24
 ***** THE ABOVE OBSERVATIONS ARE NON NWS ARE NOT QUALITY
       CONTROLLED AND MAY MIS-REPORT RAIN FOR SNOW...
$$

  *****  WEATHER ACROSS NORTHERN MINNESOTA  *****

CITY           SKY/WX    TMP DP  RH WIND       PRES   REMARKS
FLAG ISLAND    MOSUNNY    9  -2  61 NW30G36   29.70R HAZE    WCI -14
WARROAD        MOSUNNY   10   0  61 NW16G24   29.74R HAZE    WCI  -7
ROSEAU         MOSUNNY   12   1  62 NW17G25   29.75R WCI  -5
HALLOCK        NOT AVBL
THF RVR FALLS  CLOUDY    10   3  72 NW24      29.80R WCI -10
BAUDETTE       CLOUDY    12   4  70 NW18G30   29.68R HAZE    WCI  -6
WASKISH        CLOUDY    18   9  68 W14G20    29.68S WCI   4
CROOKSTON      PTSUNNY   10   7  85 NW25G35   29.87R FOG     WCI -10
STEPHEN NDAWN    N/A      9   5  85 NW20        N/A  WCI -11
GREENBUSH NDAW   N/A      9   1  72 NW23        N/A  WCI -12
$$
  *****  WEATHER ACROSS CENTRAL AND WEST MINNESOTA  *****

CITY           SKY/WX    TMP DP  RH WIND       PRES   REMARKS
FOSSTON        CLOUDY    12   3  67 NW20G30   29.79R HAZE    WCI  -6
BEMIDJI        CLOUDY    14   6  72 NW29G36   29.71R HAZE    WCI  -7
PARK RAPIDS    LGT SNOW  17   8  67 NW22      29.71R WCI   0
ELBOW LAKE     LGT SNOW  14  10  86 NW29G37   29.80R VSB 3/4 WCI  -7
WADENA         CLOUDY    16   9  73 NW25G33   29.73R HAZE    WCI  -3
DETROIT LAKES  LGT SNOW  14  10  85 NW21G32   29.79R WCI  -4
MOORHEAD       PTSUNNY   16   9  73 NW29G36   29.88R WCI  -4
FERGUS FALLS   SNOW      12   9  85 NW29G35   29.85R VSB 1/2 WCI  -9
MORRIS MN      SNOW      18  12  79 NW33      29.80R VSB 1/2 WCI  -3
STAPLES        CLOUDY    18  10  73 NW16G30   29.70R WCI   3
$$
  *****  WEATHER ELSEWHERE ACROSS MINNESOTA  *****

CITY           SKY/WX    TMP DP  RH WIND       PRES   REMARKS
DULUTH         LGT SNOW  21  16  81 W15       29.56F VSB 3/4 WCI   8
INTRNTL FALLS  LGT SNOW  17   9  70 W20G29    29.60R WCI   1
ELY            LGT SNOW  21  18  86 SW9       29.52F WCI  11
CLOQUET        LGT SNOW  21  16  79 SW12G18   29.58F WCI   9
WHEATON        LGT SNOW  14   9  79 NW25G32   29.88R WCI  -5
BRAINERD       LGT SNOW  23  17  78 NW17G29   29.66R WCI   9
HIBBING        LGT SNOW  22  18  85 W7        29.56F VSB 3/4 WCI  13
ALEXANDRIA     LGT SNOW  19  11  70 NW26G35   29.73R WCI   1
SAINT CLOUD    LGT SNOW  24  20  84 W12       29.66S FOG     WCI  13
MINNEAPOLIS    LGT SNOW  26  22  84 SW10      29.68S FOG     WCI  16
$$

  *****  WEATHER ACROSS SOUTH DAKOTA  *****

CITY           SKY/WX    TMP DP  RH WIND       PRES   REMARKS
SIOUX FALLS    CLOUDY    21  15  78 NW28G38   29.83R BLWGSNOWWCI   3
BROOKINGS      NOT AVBL
WATERTOWN      LGT SNOW  13   6  74 NW35G40   29.85R WCI -10
HURON          MOSUNNY   15   5  64 NW25G37   29.97R WCI  -4
SISSETON         N/A     14   7  73 N29G39    29.87R WCI  -7
ABERDEEN       SUNNY     12   2  64 NW31G37   29.99R BLWGSNOWWCI -10
MITCHELL       SNOW      18  12  77 NW33G41   29.96R VSB 1/2 WCI  -2
PIERRE         CLOUDY    16   2  54 NW33G39   30.02S WCI  -5
MOBRIDGE       MOSUNNY   14  -3  47 NW24G35   29.99S WCI  -5
RAPID CITY     CLOUDY    14   2  58 N25G36    30.02R WCI  -5
$$

  *****  SOME WEATHER IN NEARBY STATES *****

CITY           SKY/WX    TMP DP  RH WIND       PRES   REMARKS
GLASGOW MT     CLOUDY     8  -5  55 NW22G29   30.15S WCI -12
GREAT FALLS MT SUNNY      7   2  80 SW8       30.16F WCI  -6
CHEYENNE WY    FLURRIES  12   4  70 N15G26    29.84R WCI  -4
SCOTTSBLUFF NE LGT SNOW  19  11  70 N12       29.99R WCI   7
OMAHA NE       CLOUDY    35  29  78 NW17G24   29.78R WCI  25
DES MOINES IA  DRIZZLE   35  32  88 NW15      29.72R FOG
DAVENPORT IA   CLOUDY    32  28  85 SW17      29.68S FOG     WCI  21
CHICAGO IL     FRZ DRZL  31  29  92 S15       29.67F FOG     WCI  20
EAU CLAIRE WI  LGT SNOW  24  20  84 CALM      29.64S FOG
LA CROSSE WI   CLOUDY    26  23  88 S5        29.66F FOG     WCI  20
$$

  *****  SOME NATIONAL WEATHER *****

CITY           SKY/WX    TMP DP  RH WIND       PRES   REMARKS
LA GUARDIA NY  CLOUDY    29  10  45 S10       30.39F WCI  20
RALEIGH NC     CLOUDY    39  19  44 NE3       30.37S
ATLANTA GA     DRZL/FOG  53  51  93 E10       30.23F VSB 1/2
NEW ORLEANS LA PTSUNNY   76  67  73 S15       30.11F
OKLAHOMA CITY  CLOUDY    52  42  69 SW18      29.89F
ALBUQUERQUE NM PTSUNNY   45  27  49 CALM      29.93S
SALT LAKE CITY SNOW      31  30  96 N14       29.86R VSB 1/4 WCI  21
LOS ANGELES CA MOSUNNY   56  43  61 VRB6      29.98R
BOISE ID       SUNNY     35  21  56 NW14      30.03R
SEATTLE WA     MOSUNNY   43  30  60 CALM      30.24R
$$

*** WEATHER ACROSS MANITOBA...SASKATCHEWAN AND ONTARIO ***
                ***ONTARIO***

CITY           SKY/WX    TMP DP  RH WIND       PRES   REMARKS
GERALDTON      LGT SNOW  19  16  86 S12G18    29.48F VSB 1   WCI   7
THUNDER BAY    LGT SNOW  25  23  93 SW10      29.54F VSB 1   WCI  15
SIOUX LOOKOUT  PTSUNNY   12   3  67 NW21G28   29.50R WCI  -6
TORONTO        LGT SNOW  21  18  86 S10       30.07F VSB 3/4 WCI  10
BIG TROUT LK   LGT SNOW  19  16  86 S3        29.29F
PICKLE LAKE    SNOW      21  16  79 W16G25    29.33F VSB 1/2 WCI   7
DRYDEN         PTSUNNY   10   0  61 NW14G25   29.55R WCI  -5
KENORA         MOSUNNY    9  -4  56 NW14G24   29.64S WCI  -8
$$
                *** MANITOBA***

CITY           SKY/WX    TMP DP  RH WIND       PRES   REMARKS
BRANDON        PTSUNNY   -2 -11  65 NW28G33   29.92S BLWGSNOWWCI -28
DAUPHIN        LGT SNOW   0 -11  60 W21       29.90S WCI -23
ISLAND LAKE    FLURRIES  -4 -11  71 W22       29.59R WCI -28
PILOT MOUND      N/A      0  -8  71 NW23G31     N/A  WCI -24
THE PAS        CLOUDY    -9 -20  59 NW22G30   29.88S WCI -35
THOMPSON       FLURRIES  -6 -17  59 NW16G25   29.71R WCI -28
WINNIPEG       MOSUNNY    3  -8  60 NW30      29.86S WCI -21
LYNN LAKE      PTSUNNY  -13 -22  64 N15G23    29.84S WCI -36
CHURCHILL      PTSUNNY   -9 -15  77 NE22      29.93R WCI -35
GILLAM         SNOW      -4 -11  71 NE20G31   29.62R VSB 1/2 WCI -27
$$
                ***SASKATCHEWAN***

CITY           SKY/WX    TMP DP  RH WIND       PRES   REMARKS
ESTEVAN        SUNNY     -2 -11  65 NW24G30   30.04S WCI -27
KINDERSLEY     MOSUNNY    0  -8  71 W17       30.11F WCI -21
LLOYDMINSTER   MOSUNNY   -2 -13  60 W13       30.06S WCI -21
PRINCE ALBERT  PTSUNNY   -2 -13  60 NW17      30.00F WCI -24
REGINA         MOSUNNY   -4 -11  71 NW24      30.04F WCI -29
YORKTON        MOSUNNY   -6 -15  65 NW23G31   29.93F WCI -31
N. BATTLEFORD  PTSUNNY   -2  -9  71 NW17      30.09S WCI -24
LA RONGE       CRYSTALS  -9 -22  54 NW16G24   30.01S WCI -32
SASKATOON      PTSUNNY   -4 -13  65 W10       30.08F WCI -21
SWIFT CURRENT  SUNNY      0  -9  65 NW24G30   30.06F WCI -24
$$
NOTE: THESE ARE AUTOMATED STATIONS WITH LIMITED QUALITY CONTROL
      "FAIR" INDICATES FEW OR NO CLOUDS BELOW 12,000 FEET WITH NO
      SIGNIFICANT WEATHER AND/OR OBSTRUCTIONS TO VISIBILITY.
      SKY/WX - SKY CONDITION AND SIGNIFICANT WEATHER.
      TMP - AIR TEMPERATURE.    DP   - DEWPOINT TEMPERATURE.
      RH  - RELATIVE HUMIDITY.  PRES - PRESSURE.
      HX  - HEAT INDEX.         WCI  - WIND CHILL INDEX.
$


USA.gov is the U.S. government's official web portal to all federal, state and local government web resources and services.